Simultaneous Nadir Overpasses (SNOs) Predictions

Prediction of SNOs between GOES-17 and METOP-C Satellite Orbit:

Table of predicted SNOs for the next 14.0 days since TLE Epoch: 1/7/2023
Index Date Time (GOES-17) GOES-17 Lat,Lon METOP-C Lat,Lon Distance(km) Time Diff (sec)
1 01/07/2023 06:48:40 0.01,-137.33 -0.57,-139.78 279.62 80
2 01/08/2023 06:30:40 0.00,-137.33 0.56,-134.78 289.45 80
3 01/09/2023 18:46:51 -0.00,-137.33 0.42,-139.35 229.48 80
4 01/10/2023 18:28:51 0.00,-137.32 -0.66,-134.34 339.51 80
5 01/12/2023 06:45:11 0.00,-137.31 -0.35,-138.94 185.99 80
6 01/13/2023 06:27:11 -0.00,-137.30 0.73,-133.93 382.64 80
7 01/14/2023 18:43:21 -0.00,-137.29 0.29,-138.49 137.15 80
8 01/15/2023 18:25:22 -0.00,-137.28 -0.86,-133.50 431.10 80
9 01/17/2023 06:41:42 0.01,-137.25 -0.16,-138.09 95.96 80
10 01/18/2023 06:23:41 0.00,-137.23 0.93,-133.09 471.55 80
11 01/19/2023 18:39:52 -0.01,-137.20 0.06,-137.65 50.18 80
